Location: Broletto
(44.6000°N, 10.5833°E)
Time: 07:14:25
(UTC+00:00)

COSMOS 2428 - Pass Details

Date: 18 April 2021
Orbit: 844 x 859 km, 70.9° (Epoch: 06 May)

Event Time Altitude Azimuth Distance (km) Brightness Sun altitude
Rises 20:39:13 0° 323° (NW) 3,441 7.3 -23.8°
Reaches altitude 10° 20:42:04 10° 311° (NW) 2,501 6.2 -24.2°
Maximum altitude 20:46:38 25° 258° (WSW) 1,667 4.5 -24.7°
Enters shadow 20:49:50 16° 215° (SW) 2,112 4.6 -25.1°
